Weather History for KBKS - November, 2011

Change the Weather History Date:

Saturday, November 19, 2011

  Actual Average (KNQI) Record (KNQI)
Temperature  
Mean Temperature 82 °F -  
Max Temperature 95 °F 73 °F 93 °F (2011)
Min Temperature 69 °F 54 °F 36 °F (2010)
Cooling Degree Days 17    
Growing Degree Days 32 (Base 50)    
Moisture  
Dew Point 65 °F    
Average Humidity 63    
Maximum Humidity 88    
Minimum Humidity 34    
Precipitation  
Precipitation 0.00 in - - ()
Sea Level Pressure  
Sea Level Pressure 29.89 in    
Wind  
Wind Speed 13 mph (SSE)    
Max Wind Speed 24 mph    
Max Gust Speed 31 mph    
Visibility 10 miles    
Events      
Averages and records for this station are not official NWS values.
T = Trace of Precipitation, MM = Missing Value Source: NWS Daily Summary

Daily Weather History Graph

Daily Weather History Graph

Search for Another Location

Airport or City:

Trip Planner

Search our weather history database for the weather conditions in past years. The results will help you decide how hot, cold, wet, or windy it might be!

Date:

Astronomy

Nov. 19, 2011 Rise Set
Actual Time 6:55 AM CST 5:39 PM CST
Civil Twilight 6:30 AM CST 6:04 PM CST
Nautical Twilight 6:02 AM CST 6:32 PM CST
Astronomical Twilight 5:34 AM CST 7:00 PM CST
Moon 12:50 AM CST (11/19) 1:28 PM CST (11/19)
Length of Visible Light 11h 33m
Length of Day
10h 44m
Last Quarter, 38% of the Moon is Illuminated
Nov 19
Last Quarter
Nov 25
New
Dec 2
First Quarter
Dec 10
Full
Dec 17
Last Quarter

Hourly Weather History & Observations

Time (CST) Temp. Heat Index Dew Point Humidity Pressure Visibility Wind Dir Wind Speed Gust Speed Precip Events Conditions
12:15 AM 69.8 °F - 62.6 °F 78% 29.95 in 10.0 mi SE 8.1 mph - N/A   Overcast
12:35 AM 69.8 °F - 62.6 °F 78% 29.94 in 10.0 mi SE 9.2 mph - N/A   Scattered Clouds
12:55 AM 69.8 °F - 62.6 °F 78% 29.93 in 10.0 mi SSE 10.4 mph - N/A   Clear
1:15 AM 69.8 °F - 62.6 °F 78% 29.93 in 10.0 mi SSE 8.1 mph - N/A   Clear
1:55 AM 69.8 °F - 64.4 °F 83% 29.91 in 10.0 mi SE 10.4 mph - N/A   Clear
2:15 AM 69.8 °F - 64.4 °F 83% 29.91 in 10.0 mi SE 9.2 mph - N/A   Clear
2:35 AM 69.8 °F - 64.4 °F 83% 29.91 in 10.0 mi SSE 10.4 mph - N/A   Clear
2:55 AM 69.8 °F - 64.4 °F 83% 29.90 in 10.0 mi SE 10.4 mph - N/A   Scattered Clouds
3:15 AM 69.8 °F - 64.4 °F 83% 29.90 in 10.0 mi SSE 9.2 mph 16.1 mph N/A   Scattered Clouds
3:35 AM 69.8 °F - 64.4 °F 83% 29.89 in 10.0 mi SSE 10.4 mph - N/A   Scattered Clouds
3:55 AM 69.8 °F - 64.4 °F 83% 29.89 in 10.0 mi SE 9.2 mph - N/A   Scattered Clouds
4:15 AM 69.8 °F - 64.4 °F 83% 29.89 in 10.0 mi SE 9.2 mph - N/A   Scattered Clouds
4:35 AM 69.8 °F - 64.4 °F 83% 29.88 in 10.0 mi SE 10.4 mph - N/A   Clear
5:15 AM 71.6 °F - 66.2 °F 83% 29.88 in 10.0 mi SSE 11.5 mph - N/A   Clear
5:35 AM 71.6 °F - 68.0 °F 88% 29.88 in 10.0 mi SSE 11.5 mph 18.4 mph N/A   Clear
5:55 AM 71.6 °F - 68.0 °F 88% 29.89 in 10.0 mi SSE 10.4 mph - N/A   Clear
6:15 AM 71.6 °F - 68.0 °F 88% 29.89 in 10.0 mi SSE 10.4 mph - N/A   Clear
6:35 AM 71.6 °F - 68.0 °F 88% 29.89 in 10.0 mi SSE 6.9 mph - N/A   Clear
6:55 AM 71.6 °F - 68.0 °F 88% 29.90 in 10.0 mi SSE 10.4 mph - N/A   Clear
7:15 AM 71.6 °F - 68.0 °F 88% 29.90 in 7.0 mi SSE 11.5 mph - N/A   Clear
7:35 AM 71.6 °F - 68.0 °F 88% 29.91 in 10.0 mi SSE 6.9 mph - N/A   Clear
7:55 AM 73.4 °F - 68.0 °F 83% 29.91 in 10.0 mi South 8.1 mph - N/A   Clear
8:15 AM 75.2 °F - 68.0 °F 78% 29.92 in 10.0 mi South 9.2 mph 16.1 mph N/A   Clear
8:35 AM 77.0 °F - 68.0 °F 74% 29.92 in 10.0 mi South 13.8 mph 19.6 mph N/A   Clear
8:55 AM 78.8 °F - 68.0 °F 69% 29.93 in 10.0 mi South 16.1 mph 23.0 mph N/A   Clear
9:15 AM 78.8 °F - 66.2 °F 65% 29.93 in 10.0 mi South 19.6 mph 24.2 mph N/A   Clear
9:35 AM 80.6 °F 82.7 °F 66.2 °F 61% 29.94 in 10.0 mi South 19.6 mph 28.8 mph N/A   Clear
9:55 AM 82.4 °F 84.6 °F 66.2 °F 58% 29.93 in 10.0 mi South 18.4 mph 28.8 mph N/A   Clear
10:15 AM 84.2 °F 86.6 °F 66.2 °F 55% 29.93 in 10.0 mi South 20.7 mph 29.9 mph N/A   Clear
10:35 AM 86.0 °F 87.3 °F 64.4 °F 48% 29.92 in 10.0 mi SSE 24.2 mph 28.8 mph N/A   Clear
10:55 AM 86.0 °F 87.3 °F 64.4 °F 48% 29.93 in 10.0 mi South 19.6 mph 31.1 mph N/A   Clear
11:15 AM 87.8 °F 89.4 °F 64.4 °F 46% 29.92 in 10.0 mi South 23.0 mph 28.8 mph N/A   Clear
11:35 AM 87.8 °F 89.4 °F 64.4 °F 46% 29.91 in 10.0 mi South 18.4 mph 28.8 mph N/A   Clear
11:55 AM 89.6 °F 91.1 °F 64.4 °F 43% 29.90 in 10.0 mi SSE 21.9 mph 26.5 mph N/A   Clear
12:15 PM 89.6 °F 90.1 °F 62.6 °F 40% 29.89 in 10.0 mi South 15.0 mph 26.5 mph N/A   Clear
12:35 PM 91.4 °F 92.1 °F 62.6 °F 38% 29.88 in 10.0 mi South 18.4 mph 27.6 mph N/A   Clear
12:55 PM 91.4 °F 92.1 °F 62.6 °F 38% 29.86 in 10.0 mi South 19.6 mph 25.3 mph N/A   Clear
1:15 PM 91.4 °F 92.1 °F 62.6 °F 38% 29.85 in 10.0 mi SSE 21.9 mph 28.8 mph N/A   Clear
1:35 PM 93.2 °F 94.1 °F 62.6 °F 36% 29.84 in 10.0 mi South 23.0 mph 27.6 mph N/A   Clear
1:55 PM 93.2 °F 94.1 °F 62.6 °F 36% 29.84 in 10.0 mi South 19.6 mph 28.8 mph N/A   Clear
2:15 PM 95.0 °F 96.0 °F 62.6 °F 34% 29.83 in 10.0 mi South 15.0 mph 25.3 mph N/A   Clear
2:35 PM 93.2 °F 94.1 °F 62.6 °F 36% 29.82 in 10.0 mi SSE 19.6 mph 24.2 mph N/A   Clear
3:15 PM 93.2 °F 94.9 °F 64.4 °F 38% 29.81 in 10.0 mi SSE 19.6 mph 25.3 mph N/A   Clear
3:35 PM 91.4 °F 93.2 °F 64.4 °F 41% 29.81 in 10.0 mi SE 18.4 mph 24.2 mph N/A   Clear
4:15 PM 91.4 °F 93.2 °F 64.4 °F 41% 29.82 in 10.0 mi South 19.6 mph 23.0 mph N/A   Clear
4:35 PM 89.6 °F 91.1 °F 64.4 °F 43% 29.83 in 10.0 mi SSE 17.3 mph 24.2 mph N/A   Clear
4:55 PM 89.6 °F 91.1 °F 64.4 °F 43% 29.83 in 10.0 mi SSE 18.4 mph - N/A   Clear
5:15 PM 87.8 °F 89.4 °F 64.4 °F 46% 29.84 in 10.0 mi SSE 19.6 mph 25.3 mph N/A   Clear
5:35 PM 86.0 °F 87.3 °F 64.4 °F 48% 29.84 in 10.0 mi SSE 13.8 mph - N/A   Clear
5:55 PM 86.0 °F 87.3 °F 64.4 °F 48% 29.85 in 10.0 mi SSE 18.4 mph 25.3 mph N/A   Clear
6:15 PM 84.2 °F 85.6 °F 64.4 °F 51% 29.86 in 10.0 mi SSE 12.7 mph - N/A   Clear
6:35 PM 82.4 °F 84.6 °F 66.2 °F 58% 29.87 in 10.0 mi SSE 17.3 mph - N/A   Clear
6:55 PM 82.4 °F 84.6 °F 66.2 °F 58% 29.88 in 10.0 mi SSE 17.3 mph 27.6 mph N/A   Clear
7:15 PM 82.4 °F 84.6 °F 66.2 °F 58% 29.89 in 10.0 mi SE 13.8 mph - N/A   Clear
7:35 PM 80.6 °F 83.2 °F 68.0 °F 65% 29.90 in 10.0 mi SSE 13.8 mph 19.6 mph N/A   Clear
7:55 PM 80.6 °F 83.2 °F 68.0 °F 65% 29.91 in 10.0 mi East 9.2 mph - N/A   Clear
8:15 PM 78.8 °F - 68.0 °F 69% 29.91 in 10.0 mi SE 11.5 mph - N/A   Clear
8:35 PM 78.8 °F - 68.0 °F 69% 29.92 in 10.0 mi SSE 13.8 mph 20.7 mph N/A   Clear
8:55 PM 78.8 °F - 68.0 °F 69% 29.93 in 10.0 mi SSE 9.2 mph - N/A   Clear
9:15 PM 78.8 °F - 68.0 °F 69% 29.93 in 10.0 mi SSE 9.2 mph 16.1 mph N/A   Clear
9:35 PM 77.0 °F - 68.0 °F 74% 29.93 in 10.0 mi SSE 6.9 mph - N/A   Clear
9:55 PM 77.0 °F - 68.0 °F 74% 29.93 in 10.0 mi SSE 12.7 mph - N/A   Clear
10:15 PM 77.0 °F - 68.0 °F 74% 29.94 in 10.0 mi SE 11.5 mph - N/A   Clear
10:35 PM 77.0 °F - 68.0 °F 74% 29.94 in 10.0 mi SE 12.7 mph - N/A   Clear
11:15 PM 75.2 °F - 68.0 °F 78% 29.94 in 10.0 mi SSE 10.4 mph - N/A   Clear
11:35 PM 75.2 °F - 69.8 °F 83% 29.94 in 10.0 mi SSE 9.2 mph - N/A   Clear
11:55 PM 75.2 °F - 69.8 °F 83% 29.94 in 10.0 mi SSE 9.2 mph - N/A   Clear